Вернуться в каталог

GORIZONT 21

АктивенСвязьGEO
NORAD 20923·PAYLOAD·🇷🇺 Russia

Запущен Nov 3, 1990 с Baikonur Cosmodrome

Loading…

TLE

СвежийSource: Space-Track

Эпоха: Sep 13, 2026, 17:38 UTC

1 20923U 90094A   26256.73488120 -.00000095  00000-0  00000-0 0  9997
2 20923  12.6533 336.1428 0007101 268.4193  88.5169  1.00149186131335

Отслеживайте GORIZONT 21 в реальном времени с AllMySat

Download on the App Store